Вернуться в каталог

THORAD DELTA 1 DEB

АктивенSSO
NORAD 8173·DEBRIS·🇺🇸 United States

Запущен Nov 15, 1974 с Vandenberg Space Force Base

Loading…

Ближайшие Пролёты (ближайшие 24 часа)

TLE

СвежийSource: Space-Track

Эпоха: Sep 14, 2026, 22:16 UTC

1 08173U 74089AP  26257.92790503 -.00000009  00000-0  23787-3 0  9994
2 08173 102.0053 241.1509 0108772 316.9603  68.1519 12.51903498366228

Отслеживайте THORAD DELTA 1 DEB в реальном времени с AllMySat

Download on the App Store